星链-34335 (STARLINK-34335)

导读

STARLINK-34335是美国太空探索技术公司(SpaceX)星链互联网星座中的一颗卫星,于2025年6月13日发射入轨,归属美国所有。星链项目旨在构建全球卫星互联网星座,为全球提供高速互联网接入服务,STARLINK-34335的入轨进一步扩充了星链星座的规模,提升了星座的服务覆盖能力与稳定性。

Basic Information
目录编号:
64362
目录名称:
STARLINK-34335
国际标识:
2025-126U
轨道中心:
EARTH
卫星名称:
星链-34335
卫星全名:
星链-34335 (STARLINK-34335)
卫星状态:
在轨 (已飞行449 天)
发射日期:
2025-06-13 UTC
国别 :
美国 (US)
星等 :
--
Orbit Information
数据来源 国际轨道数据
星历时间: 2026-09-05T14:00:02+0800
14小时前
查看轨道信息
半长轴: 6881.751km
偏心率: 0.0003622
轨道倾角: 70.001°
近地点辐角 307.960°
升交点赤经 301.406°
平近点角 143.718°
近地点: 501.121km
远地点: 506.107km
周期: 94.691分钟
每日圈数: 15.20738
Detailed Information
固有亮度:
5
最大亮度:
2.5
卫星平台:
Starlink V1.0
覆盖范围:
全球
运营商:
太空探索技术公司
运营商所在国:
美国
制造商(研发单位):
太空探索技术公司
制造商所在国:
美国
使用方式:
暂无
Satellite Introduction
Starlink 计划是 SpaceX 推出的全球卫星互联网项目,通过发射低轨道卫星,为全球尤其是偏远地区提供高速、低延迟的互联网服务。自 2019 年起,Starlink 已部署数千颗卫星,旨在缩小全球数字鸿沟,推动互联网普及。该项目还为军事、航空等行业提供通信支持,带来广泛经济效益。
2D Orbit Map
3D Orbit Map
Orbit Altitude Analysis Chart
Orbit Inclination Analysis Chart
Orbit Comprehensive Analysis Chart
View Comprehensive Chart
Conjunction Data List
Event ID Objects TCA Miss Dist (km) Collision Risk Probability Collision Risk Index (CRI) Action
CDM_260908-013204-378606-436221
ITASAT (43786)
2026-09-08T
01:32:10+0000
1.044 km
极远距离
8.939304E-6 低风险 0.54
CDM_260901-154306-429306-436221
2026-09-01T
15:43:08+0000
2.742 km
极远距离
1.462142E-6 低风险 0.38
CDM_260906-085706-124006-436221
OBJECT C (61240)
2026-09-06T
08:57:23+0000
2.556 km
极远距离
1.038616E-6 低风险 0.35